This is the latest recevied weather packets stored in our database for station/object N9BID. If no packets are shown the sender has not sent any weather packets the latest 10 day(s).
| Time | Temp. | Humidity | Pressure | Rain* | Wind** | Luminosity | Snow |
|---|---|---|---|---|---|---|---|
| 1777829775 | 18.33° C | 55% | 997 hPa | 0 mm | - | 586 W/m² | - |
| 1777829471 | 17.78° C | 49% | 997.2 hPa | 0 mm | - | 601 W/m² | - |
| 1777829168 | 17.78° C | 49% | 997 hPa | 0 mm | - | 629 W/m² | - |
| 1777828866 | 17.78° C | 52% | 997.2 hPa | 0 mm | - | 612 W/m² | - |
| 1777828562 | 17.78° C | 51% | 997.2 hPa | 0 mm | - | 602 W/m² | - |
| 1777828260 | 17.78° C | 53% | 997.3 hPa | 0 mm | - | 642 W/m² | - |
| 1777827956 | 17.22° C | 51% | 997.3 hPa | 0 mm | - | 620 W/m² | - |
| 1777827653 | 16.67° C | 51% | 997.3 hPa | 0 mm | - | 609 W/m² | - |
| 1777827350 | 16.67° C | 51% | 997.3 hPa | 0 mm | - | 639 W/m² | - |
| 1777827046 | 16.67° C | 53% | 997.6 hPa | 0 mm | - | 617 W/m² | - |
| 1777826744 | 16.67° C | 52% | 997.5 hPa | 0 mm | - | 610 W/m² | - |
| 1777826440 | 16.67° C | 55% | 997.6 hPa | 0 mm | - | 634 W/m² | - |
| 1777826137 | 16.67° C | 54% | 997.5 hPa | 0 mm | - | 647 W/m² | - |
| 1777825835 | 16.67° C | 53% | 997.3 hPa | 0 mm | - | 665 W/m² | - |
| 1777825532 | 16.11° C | 52% | 997.4 hPa | 0 mm | - | 663 W/m² | - |
| 1777825230 | 16.67° C | 57% | 997.6 hPa | 0 mm | - | 676 W/m² | - |
| 1777824926 | 16.11° C | 55% | 997.6 hPa | 0 mm | - | 675 W/m² | - |
| 1777824622 | 15.56° C | 58% | 997.7 hPa | 0 mm | - | 668 W/m² | - |
| 1777824320 | 16.11° C | 55% | 997.8 hPa | 0 mm | - | 656 W/m² | - |
| 1777824015 | 16.11° C | 58% | 997.8 hPa | 0 mm | - | 659 W/m² | - |
| 1777823712 | 15.56° C | 56% | 998 hPa | 0 mm | - | 655 W/m² | - |
| 1777823409 | 15.56° C | 54% | 998 hPa | 0 mm | - | 636 W/m² | - |
| 1777823106 | 15° C | 56% | 998.1 hPa | 0 mm | - | 613 W/m² | - |
| 1777822804 | 15.56° C | 56% | 998.1 hPa | 0 mm | - | 572 W/m² | - |
| 1777822502 | 15° C | 59% | 998.1 hPa | 0 mm | - | 554 W/m² | - |
* Rain latest hour (hover to see other rain measurements)
** Current wind speed in m/s (hover to see current wind gust speed)